Вернуться в каталог

FREGAT DEB

LostUNKNOWN
NORAD 46403·DEBRIS·🇷🇺 Russia

Запущен Jul 18, 2011 с Baikonur Cosmodrome

Loading…

Ближайшие Пролёты (ближайшие 24 часа)

TLE

УстаревшееSource: Space-Track

Эпоха: Oct 17, 2020, 11:33 UTC

1 46403U 11037LJ  20291.48188630  .00381966  00000-0  40674-1 0  9996
2 46403  51.5514  19.1705 1693644 323.1541  26.3786 11.84244466  6980

Отслеживайте FREGAT DEB в реальном времени с AllMySat

Download on the App Store